Regional Weather Roundup
Issued by NWS

Home | Current Version | Previous Version | Text Only | Print | Product List | Glossary Off
Versions: 1 2 3 4 5 6 7 8 9 10 11 12 13 14 15 16 17 18 19 20 21 22 23 24 25 26 27

000
ASUS45 KBOU 240307
RWRCO

WEATHER ROUNDUP FOR COLORADO
NATIONAL WEATHER SERVICE DENVER/BOULDER CO
900 PM MDT THU OCT 23 2014

NOTE: "FAIR" INDICATES FEW OR NO CLOUDS BELOW 12000 FEET WITH NO
SIGNIFICANT WEATHER AND/OR OBSTRUCTIONS TO VISIBILITY.

COZ001>005-013-030-031-240400-
...NORTHWEST COLORADO...

CITY           SKY/WX    TMP DP  RH WIND       PRES   REMARKS
CRAIG          PTCLDY    49  34  56 W9        30.22R
HAYDEN         PTCLDY    55  28  35 E3        30.24R
MEEKER         CLEAR     56  33  42 W12       30.24S
MOUNT WERNER   NOT AVBL
STEAMBOAT SPGS PTCLDY    49  32  51 CALM      30.25R
WALDEN         MOCLDY    43  28  56 SE9       30.29R
$$

COZ006>008-011-240400-
...WEST CENTRAL VALLEYS...

CITY           SKY/WX    TMP DP  RH WIND       PRES   REMARKS
GRAND JUNCTION MOCLDY    52  36  54 NE7       30.20R
MONTROSE       PTCLDY    51  38  60 SE7       30.27R
EAGLE          NOT AVBL
RIFLE          PTCLDY    50  39  66 SE5       30.24R
DELTA          PTCLDY    55  38  53 NE5       30.23R
NUCLA          PTCLDY    54  32  43 E10       30.31R
$$

COZ017>023-064>068-240400-
...SOUTHWEST COLORADO...

CITY           SKY/WX    TMP DP  RH WIND       PRES   REMARKS
DURANGO        CLEAR     48  38  68 NE5       30.31R
CORTEZ         CLEAR     44  32  62 E5        30.29R
PAGOSA SPRINGS CLEAR     48  36  63 NE3       30.38R
TELLURIDE      PTCLDY    46  32  57 SE7       30.46S
WOLF CREEK PAS CLEAR     36  32  87 SW14        N/A
$$

COZ009-010-012-014-032>034-037-058>063-240400-
...CENTRAL COLORADO...

CITY           SKY/WX    TMP DP  RH WIND       PRES   REMARKS
ASPEN          CLEAR     43  31  62 SW8       30.35R
BUENA VISTA    CLEAR     45  28  51 CALM      30.35R
COPPER MTN     CLEAR     41  18  38 SW13G20   30.55R
BERTHOUD PASS  FAIR      34  32  93 W32G44    30.52S WCI  20
COTTONWOOD PAS CLEAR     50  23  34 W10G17    30.44S
GUNNISON       CLEAR     45  25  45 N3        30.39R
KREMMLING      CLEAR     43  30  61 E7          N/A
LEADVILLE      CLEAR     37  24  59 NE8       30.43S
MONARCH PASS   CLEAR     36  27  69 SW18      30.66S
SALIDA         CLEAR     54  30  39 W8        30.39S
SUNLIGHT       PTCLDY    39  30  70 CALM      30.50S
WILKERSON PASS NOT AVBL
$$

COZ069>075-240400-
...SAN LUIS VALLEY/SANGRE DE CRISTO MOUNTAINS...

CITY           SKY/WX    TMP DP  RH WIND       PRES   REMARKS
ALAMOSA        CLEAR     45  27  49 CALM      30.33R
LA VETA PASS   CLEAR     45  27  49 S8        30.46S
SAGUACHE       CLEAR     45  28  53 N8        30.37R
$$

COZ035-036-038>040-240400-
...NORTHERN COLORADO FRONT RANGE...

CITY           SKY/WX    TMP DP  RH WIND       PRES   REMARKS
DENVER INTL AP MOCLDY    56  32  40 S14       30.13S
DMNS CITY PARK   N/A     57  35  43 S3        30.13R
AURORA         MOCLDY    54  33  44 S10       30.16R
FRONT RANGE AP NOT AVBL
ERIE MUNI ARPT MOCLDY    54  33  44 SW8       30.11S
BOULDER MUN AP MOCLDY    61  32  33 W3        30.11S
CENTENNIAL     MOCLDY    53  34  48 S7        30.16S
BROOMFIELD     PTCLDY    61  28  29 SW3       30.15S
FORT COLLINS   MOCLDY    57  37  47 CALM      30.11S
LONGMONT       MOCLDY    55  37  50 CALM      30.12S
$$

COZ041-046-047-076>085-087-088-240400-
...PIKES PEAK/PALMER DIVIDE AND SOUTHERN FOOTHILLS...

CITY           SKY/WX    TMP DP  RH WIND       PRES   REMARKS
COLO. SPRINGS  PTCLDY    56  31  38 SE8       30.23R
A. F. ACADEMY  MOCLDY    46  33  61 N6        30.25R
ELLICOTT       NOT AVBL
FALCON         PTCLDY    49  30  46 SW6       30.28R
FORT CARSON    PTCLDY    55  30  37 S7        30.21R
LIMON          CLEAR     44  36  73 NE7       30.17R
MONUMENT HILL  PTCLDY    48  28  46 S10       30.24R
TRINIDAD       CLEAR     50  33  52 W7        30.21R
$$

COZ042>045-048>051-090-091-240400-
...NORTHEAST COLORADO...

CITY           SKY/WX    TMP DP  RH WIND       PRES   REMARKS
GREELEY ARPT   PTCLDY    54  34  47 SE6       30.09S
AKRON          PTCLDY    57  30  35 S13       30.09R
BURLINGTON     PTCLDY    57  41  55 SW12      30.10S
WRAY           PTCLDY    55  36  48 SW7       30.05R
STERLING       PTCLDY    52  37  58 SW8       30.04S
HOLYOKE        PTCLDY    54  37  54 SW7       30.05R
FORT MORGAN    PTCLDY    52  31  45 SE3       30.09R
$$

COZ086-089-092>099-240400-
...SOUTHEAST COLORADO...

CITY           SKY/WX    TMP DP  RH WIND       PRES   REMARKS
PUEBLO         CLEAR     52  34  50 N6        30.14R
LA JUNTA       CLEAR     59  38  45 S7        30.12R
LAMAR          CLEAR     57  44  62 S8        30.08S
SPRINGFIELD      N/A     53  48  83 SW3       30.15R
$$



USA.gov is the U.S. government's official web portal to all federal, state and local government web resources and services.